This is the latest recevied weather packets stored in our database for station/object WX5KDM. If no packets are shown the sender has not sent any weather packets the latest 10 day(s).
| Time | Temp. | Humidity | Pressure | Rain* | Wind** | Luminosity | Snow |
|---|---|---|---|---|---|---|---|
| 1788203879 | 35° C | 55% | 1018.9 hPa | 0 mm | - | - | - |
| 1788203575 | 36.11° C | 51% | 1019 hPa | 0 mm | - | - | - |
| 1788203271 | 35.56° C | 53% | 1019.1 hPa | 0 mm | - | - | - |
| 1788202970 | 35° C | 53% | 1019 hPa | 0 mm | - | - | - |
| 1788202665 | 35.56° C | 52% | 1019.1 hPa | 0 mm | - | - | - |
| 1788202361 | 35.56° C | 55% | 1019.1 hPa | 0 mm | - | - | - |
| 1788202060 | 35° C | 53% | 1019.1 hPa | 0 mm | - | - | - |
| 1788201756 | 36.11° C | 52% | 1019.4 hPa | 0 mm | - | - | - |
| 1788201456 | 36.67° C | 51% | 1019.4 hPa | 0 mm | - | - | - |
| 1788201150 | 36.11° C | 49% | 1019.6 hPa | 0 mm | - | - | - |
| 1788200849 | 35.56° C | 50% | 1019.3 hPa | 0 mm | - | - | - |
| 1788200545 | 35° C | 51% | 1019.6 hPa | 0 mm | - | - | - |
| 1788200245 | 35° C | 54% | 1019.5 hPa | 0 mm | - | - | - |
| 1788199940 | 34.44° C | 54% | 1019.7 hPa | 0 mm | - | - | - |
| 1788199635 | 34.44° C | 56% | 1019.9 hPa | 0 mm | - | - | - |
| 1788199330 | 33.89° C | 55% | 1019.9 hPa | 0 mm | - | - | - |
| 1788199029 | 33.89° C | 56% | 1020 hPa | 0 mm | - | - | - |
| 1788198726 | 34.44° C | 53% | 1020.1 hPa | 0 mm | - | - | - |
| 1788198425 | 33.89° C | 55% | 1020.1 hPa | 0 mm | - | - | - |
| 1788198121 | 34.44° C | 54% | 1020.2 hPa | 0 mm | - | - | - |
| 1788197820 | 34.44° C | 53% | 1020.2 hPa | 0 mm | - | - | - |
| 1788197515 | 33.89° C | 55% | 1020.3 hPa | 0 mm | - | - | - |
| 1788197215 | 34.44° C | 55% | 1020.4 hPa | 0 mm | - | - | - |
| 1788196910 | 34.44° C | 56% | 1020.4 hPa | 0 mm | - | - | - |
| 1788196605 | 33.89° C | 58% | 1020.4 hPa | 0 mm | - | - | - |
* Rain latest hour (hover to see other rain measurements)
** Current wind speed in m/s (hover to see current wind gust speed)